TimeEST,TemperatureF,Dew PointF,Humidity,Sea Level PressureIn,VisibilityMPH,Wind Direction,Wind SpeedMPH,Gust SpeedMPH,PrecipitationIn,Events,Conditions,WindDirDegrees,DateUTC
12:54 AM,26.1,19.0,75,30.35,10.0,Calm,Calm,-,N/A,,Clear,0,2012-12-31 05:54:00
1:54 AM,26.1,19.0,75,30.36,10.0,Calm,Calm,-,N/A,,Clear,0,2012-12-31 06:54:00
2:54 AM,25.0,19.0,78,30.36,10.0,Calm,Calm,-,N/A,,Clear,0,2012-12-31 07:54:00
3:54 AM,24.1,19.0,81,30.35,10.0,Calm,Calm,-,N/A,,Clear,0,2012-12-31 08:54:00
4:54 AM,21.9,19.0,89,30.34,10.0,Calm,Calm,-,N/A,,Clear,0,2012-12-31 09:54:00
5:54 AM,24.1,19.0,81,30.34,10.0,Calm,Calm,-,N/A,,Mostly Cloudy,0,2012-12-31 10:54:00
6:54 AM,24.8,21.2,86,30.30,10.0,SSE,3.5,-,N/A,,Mostly Cloudy,160,2012-12-31 11:54:00
7:54 AM,26.1,21.0,81,30.33,10.0,Calm,Calm,-,N/A,,Mostly Cloudy,0,2012-12-31 12:54:00
8:54 AM,30.0,23.0,75,30.34,10.0,SSW,4.6,-,N/A,,Overcast,200,2012-12-31 13:54:00
9:54 AM,34.0,24.1,67,30.32,10.0,SSW,6.9,-,N/A,,Overcast,200,2012-12-31 14:54:00
10:54 AM,39.9,23.0,51,30.29,10.0,Variable,6.9,-,N/A,,Overcast,0,2012-12-31 15:54:00
11:54 AM,43.0,19.9,40,30.25,10.0,SW,10.4,-,N/A,,Overcast,230,2012-12-31 16:54:00
12:54 PM,45.0,21.0,39,30.20,10.0,SW,10.4,-,N/A,,Overcast,220,2012-12-31 17:54:00
1:54 PM,46.0,19.9,35,30.17,10.0,WSW,11.5,-,N/A,,Overcast,240,2012-12-31 18:54:00
2:54 PM,46.9,21.9,37,30.16,10.0,SW,8.1,-,N/A,,Overcast,220,2012-12-31 19:54:00
3:54 PM,46.0,23.0,40,30.17,10.0,SSW,11.5,-,N/A,,Overcast,210,2012-12-31 20:54:00
4:54 PM,45.0,25.0,46,30.16,10.0,SSW,8.1,-,N/A,,Overcast,200,2012-12-31 21:54:00
5:54 PM,43.0,26.1,51,30.15,10.0,SSW,4.6,-,N/A,,Overcast,210,2012-12-31 22:54:00
6:54 PM,44.1,26.1,49,30.15,10.0,SSW,6.9,-,N/A,,Overcast,210,2012-12-31 23:54:00
7:54 PM,45.0,25.0,46,30.12,10.0,SW,10.4,-,N/A,,Overcast,230,2013-01-01 00:54:00
8:54 PM,46.0,25.0,44,30.11,10.0,SW,10.4,-,N/A,,Overcast,220,2013-01-01 01:54:00
9:54 PM,46.4,24.8,43,30.08,10.0,SW,8.1,-,N/A,,Overcast,230,2013-01-01 02:54:00
10:54 PM,46.0,26.1,46,30.09,10.0,SSW,10.4,-,N/A,,Overcast,210,2013-01-01 03:54:00
11:54 PM,46.0,26.1,46,30.06,10.0,SW,11.5,-,N/A,,Overcast,220,2013-01-01 04:54:00